This is the latest recevied weather packets stored in our database for station/object N5GMJ. If no packets are shown the sender has not sent any weather packets the latest 10 day(s).
| Time | Temp. | Humidity | Pressure | Rain* | Wind** | Luminosity | Snow |
|---|---|---|---|---|---|---|---|
| 1787618311 | 38.89° C | 21% | 1012 hPa | 0 mm | - | - | - |
| 1787618007 | 38.89° C | 21% | 1012.2 hPa | 0 mm | - | - | - |
| 1787617707 | 39.44° C | 20% | 1011.9 hPa | 0 mm | - | - | - |
| 1787617406 | 39.44° C | 20% | 1012 hPa | 0 mm | - | - | - |
| 1787617106 | 40° C | 20% | 1012 hPa | 0 mm | - | - | - |
| 1787616801 | 40° C | 19% | 1012 hPa | 0 mm | - | - | - |
| 1787616501 | 40° C | 20% | 1012 hPa | 0 mm | - | - | - |
| 1787616200 | 40.56° C | 19% | 1011.9 hPa | 0 mm | - | - | - |
| 1787615899 | 40.56° C | 19% | 1011.9 hPa | 0 mm | - | - | - |
| 1787615594 | 41.11° C | 19% | 1012 hPa | 0 mm | - | - | - |
| 1787615289 | 41.11° C | 20% | 1011.8 hPa | 0 mm | - | - | - |
| 1787614985 | 41.11° C | 19% | 1011.9 hPa | 0 mm | - | - | - |
| 1787614681 | 41.67° C | 20% | 1011.7 hPa | 0 mm | - | - | - |
| 1787614378 | 41.67° C | 20% | 1011.9 hPa | 0 mm | - | - | - |
| 1787614075 | 41.67° C | 20% | 1011.9 hPa | 0 mm | - | - | - |
| 1787613771 | 42.22° C | 20% | 1012 hPa | 0 mm | - | - | - |
| 1787613471 | 41.67° C | 20% | 1011.9 hPa | 0 mm | - | - | - |
| 1787613166 | 42.22° C | 20% | 1012 hPa | 0 mm | - | - | - |
| 1787612863 | 43.33° C | 19% | 1011.8 hPa | 0 mm | - | - | - |
| 1787612559 | 41.67° C | 20% | 1011.8 hPa | 0 mm | - | - | - |
| 1787612255 | 41.67° C | 20% | 1011.9 hPa | 0 mm | - | - | - |
| 1787611951 | 43.33° C | 20% | 1011.8 hPa | 0 mm | - | - | - |
| 1787611647 | 43.33° C | 20% | 1011.7 hPa | 0 mm | - | - | - |
| 1787611343 | 43.33° C | 19% | 1011.8 hPa | 0 mm | - | - | - |
| 1787611038 | 43.33° C | 20% | 1011.9 hPa | 0 mm | - | - | - |
* Rain latest hour (hover to see other rain measurements)
** Current wind speed in m/s (hover to see current wind gust speed)